• în România
  • Lista ţărilor
  • Pe 7 zile
  • Temperatura apei
  • Hartă satelitară
  • Meteo pe hartă
  • Widget-uri
  • user-avatar
    Intrare

    Meteo pe oră la Dromore

    Astăzi, 22 Mai, Marţi

    Timp Temperatura Precipitaţii Vânt Presiune Umiditate
    00:00 +4°C° 0 mm 6 m/s 756 mmHg 86%
    01:00 +4°C° 0 mm 6 m/s 756 mmHg 87%
    02:00 +3°C° 0 mm 6 m/s 756 mmHg 88%
    03:00 +3°C° 0 mm 5 m/s 756 mmHg 89%
    04:00 +5°C° 0 mm 5 m/s 756 mmHg 90%
    05:00 +5°C° 0 mm 5 m/s 756 mmHg 90%
    06:00 +6°C° 0 mm 4 m/s 756 mmHg 90%
    07:00 +7°C° 0 mm 4 m/s 756 mmHg 89%
    08:00 +8°C° 0 mm 4 m/s 756 mmHg 87%
    09:00 +10°C° 0 mm 4 m/s 756 mmHg 85%
    10:00 +11°C° 0 mm 4 m/s 756 mmHg 83%
    11:00 +12°C° 0 mm 3 m/s 756 mmHg 81%
    12:00 +13°C° 0 mm 3 m/s 756 mmHg 79%
    13:00 +13°C° 0 mm 3 m/s 756 mmHg 77%
    14:00 +14°C° 0 mm 3 m/s 756 mmHg 76%
    15:00 +14°C° 0 mm 3 m/s 756 mmHg 75%
    16:00 +15°C° 0 mm 2 m/s 756 mmHg 76%
    17:00 +15°C° 0 mm 2 m/s 757 mmHg 78%
    18:00 +15°C° 0 mm 2 m/s 757 mmHg 79%
    19:00 +14°C° 0 mm 2 m/s 757 mmHg 83%
    20:00 +13°C° 0 mm 2 m/s 757 mmHg 87%
    21:00 +10°C° 0 mm 2 m/s 758 mmHg 91%
    22:00 +10°C° 0 mm 3 m/s 758 mmHg 92%
    23:00 +9°C° 0 mm 3 m/s 758 mmHg 94%

    Mâine, 23 Mai, Miercuri

    Timp Temperatura Precipitaţii Vânt Presiune Umiditate
    00:00 +8°C° 0 mm 3 m/s 758 mmHg 95%
    01:00 +8°C° 0 mm 3 m/s 758 mmHg 95%
    02:00 +7°C° 0 mm 3 m/s 758 mmHg 96%
    03:00 +7°C° 0 mm 2 m/s 758 mmHg 96%
    04:00 +7°C° 0 mm 2 m/s 759 mmHg 95%
    05:00 +8°C° 0 mm 2 m/s 759 mmHg 95%
    06:00 +8°C° 0 mm 2 m/s 759 mmHg 94%
    07:00 +10°C° 0 mm 2 m/s 759 mmHg 89%
    08:00 +11°C° 0 mm 3 m/s 760 mmHg 84%
    09:00 +13°C° 0 mm 3 m/s 760 mmHg 79%
    10:00 +14°C° 0 mm 3 m/s 760 mmHg 76%
    11:00 +16°C° 0 mm 3 m/s 760 mmHg 73%
    12:00 +16°C° 0 mm 3 m/s 760 mmHg 70%
    13:00 +17°C° 0 mm 3 m/s 759 mmHg 70%
    14:00 +17°C° 0 mm 3 m/s 759 mmHg 69%
    15:00 +17°C° 0 mm 3 m/s 759 mmHg 68%
    16:00 +17°C° 0 mm 2 m/s 759 mmHg 70%
    17:00 +17°C° 0 mm 2 m/s 759 mmHg 72%
    18:00 +16°C° 0 mm 2 m/s 759 mmHg 74%
    19:00 +14°C° 0 mm 2 m/s 759 mmHg 79%
    20:00 +12°C° 0 mm 2 m/s 759 mmHg 83%
    21:00 +10°C° 0 mm 2 m/s 759 mmHg 88%
    22:00 +9°C° 0 mm 2 m/s 759 mmHg 89%
    23:00 +9°C° 0 mm 2 m/s 759 mmHg 90%

    Poimâine, 24 Mai, Joi

    Timp Temperatura Precipitaţii Vânt Presiune Umiditate
    00:00 +9°C° 0 mm 2 m/s 759 mmHg 91%
    01:00 +9°C° 0 mm 3 m/s 759 mmHg 93%
    02:00 +8°C° 0 mm 3 m/s 759 mmHg 94%
    03:00 +8°C° 0 mm 3 m/s 759 mmHg 96%
    04:00 +9°C° 0 mm 3 m/s 759 mmHg 95%
    05:00 +9°C° 0 mm 2 m/s 759 mmHg 94%
    06:00 +10°C° 0 mm 2 m/s 759 mmHg 93%
    07:00 +12°C° 0 mm 2 m/s 759 mmHg 87%
    08:00 +13°C° 0 mm 3 m/s 759 mmHg 81%
    09:00 +14°C° 0 mm 3 m/s 759 mmHg 76%
    10:00 +16°C° 0 mm 3 m/s 759 mmHg 73%
    11:00 +17°C° 0 mm 3 m/s 759 mmHg 70%
    12:00 +18°C° 0 mm 3 m/s 759 mmHg 67%
    13:00 +19°C° 0 mm 3 m/s 759 mmHg 66%
    14:00 +19°C° 0 mm 3 m/s 758 mmHg 65%
    15:00 +19°C° 0 mm 3 m/s 758 mmHg 65%
    16:00 +19°C° 0 mm 3 m/s 758 mmHg 68%
    17:00 +18°C° 0 mm 3 m/s 758 mmHg 71%
    18:00 +18°C° 0 mm 3 m/s 758 mmHg 74%
    19:00 +16°C° 0 mm 3 m/s 758 mmHg 77%
    20:00 +14°C° 0 mm 3 m/s 758 mmHg 80%
    21:00 +12°C° 0 mm 3 m/s 759 mmHg 83%
    22:00 +12°C° 0 mm 3 m/s 759 mmHg 84%
    23:00 +11°C° 0 mm 3 m/s 758 mmHg 85%

    25 Mai, Vineri

    Timp Temperatura Precipitaţii Vânt Presiune Umiditate
    00:00 +11°C° 0 mm 3 m/s 758 mmHg 86%
    01:00 +10°C° 0 mm 3 m/s 758 mmHg 88%
    02:00 +10°C° 0 mm 3 m/s 758 mmHg 91%
    03:00 +9°C° 0 mm 3 m/s 758 mmHg 93%
    04:00 +10°C° 0 mm 4 m/s 758 mmHg 91%
    05:00 +10°C° 0 mm 4 m/s 758 mmHg 89%
    06:00 +11°C° 0 mm 4 m/s 758 mmHg 87%
    07:00 +12°C° 0 mm 4 m/s 758 mmHg 82%
    08:00 +13°C° 0 mm 4 m/s 758 mmHg 77%
    09:00 +14°C° 0 mm 5 m/s 758 mmHg 72%
    10:00 +15°C° 0 mm 5 m/s 758 mmHg 70%
    11:00 +16°C° 0 mm 5 m/s 758 mmHg 68%
    12:00 +17°C° 0 mm 5 m/s 758 mmHg 65%
    13:00 +17°C° 0 mm 5 m/s 758 mmHg 65%
    14:00 +19°C° 0 mm 5 m/s 757 mmHg 65%
    15:00 +19°C° 0 mm 6 m/s 757 mmHg 65%
    16:00 +17°C° 0,1 mm 5 m/s 757 mmHg 70%
    17:00 +16°C° 0,1 mm 5 m/s 757 mmHg 76%
    18:00 +15°C° 0,1 mm 5 m/s 757 mmHg 81%
    19:00 +14°C° 0 mm 5 m/s 757 mmHg 82%
    20:00 +13°C° 0 mm 5 m/s 757 mmHg 83%
    21:00 +13°C° 0 mm 5 m/s 757 mmHg 84%
    22:00 +12°C° 0,1 mm 5 m/s 758 mmHg 87%
    23:00 +12°C° 0,1 mm 5 m/s 758 mmHg 90%

    26 Mai, Sâmbătă

    Timp Temperatura Precipitaţii Vânt Presiune Umiditate
    00:00 +10°C° 0,1 mm 5 m/s 758 mmHg 92%
    01:00 +10°C° 0,1 mm 5 m/s 758 mmHg 93%
    02:00 +10°C° 0,1 mm 5 m/s 758 mmHg 93%
    03:00 +11°C° 0,1 mm 4 m/s 758 mmHg 93%
    04:00 +11°C° 0 mm 4 m/s 758 mmHg 93%
    05:00 +11°C° 0 mm 4 m/s 758 mmHg 92%
    06:00 +11°C° 0 mm 4 m/s 758 mmHg 92%
    07:00 +12°C° 0 mm 4 m/s 758 mmHg 89%
    08:00 +13°C° 0 mm 4 m/s 758 mmHg 86%
    09:00 +14°C° 0 mm 4 m/s 758 mmHg 82%
    10:00 +15°C° 0 mm 4 m/s 758 mmHg 79%
    11:00 +17°C° 0 mm 4 m/s 758 mmHg 75%
    12:00 +17°C° 0 mm 5 m/s 758 mmHg 71%
    13:00 +19°C° 0 mm 4 m/s 758 mmHg 71%
    14:00 +19°C° 0 mm 4 m/s 758 mmHg 71%
    15:00 +20°C° 0 mm 4 m/s 757 mmHg 70%
    16:00 +19°C° 0 mm 4 m/s 757 mmHg 73%
    17:00 +19°C° 0 mm 4 m/s 757 mmHg 75%
    18:00 +18°C° 0 mm 4 m/s 757 mmHg 77%
    19:00 +17°C° 0,2 mm 4 m/s 757 mmHg 82%
    20:00 +15°C° 0,2 mm 4 m/s 758 mmHg 86%
    21:00 +14°C° 0,2 mm 4 m/s 758 mmHg 90%
    22:00 +13°C° 0,3 mm 4 m/s 758 mmHg 93%
    23:00 +13°C° 0,3 mm 4 m/s 757 mmHg 95%

    27 Mai, Duminică

    Timp Temperatura Precipitaţii Vânt Presiune Umiditate
    00:00 +12°C° 0,3 mm 4 m/s 757 mmHg 97%
    01:00 +12°C° 0 mm 3 m/s 757 mmHg 97%
    02:00 +12°C° 0 mm 3 m/s 757 mmHg 97%
    03:00 +11°C° 0 mm 3 m/s 756 mmHg 98%
    04:00 +11°C° 0 mm 3 m/s 756 mmHg 97%
    05:00 +12°C° 0 mm 3 m/s 756 mmHg 97%
    06:00 +12°C° 0 mm 3 m/s 756 mmHg 97%
    07:00 +12°C° 0 mm 3 m/s 756 mmHg 97%
    08:00 +13°C° 0 mm 3 m/s 756 mmHg 96%
    09:00 +13°C° 0 mm 3 m/s 756 mmHg 95%
    10:00 +14°C° 0 mm 3 m/s 756 mmHg 92%
    11:00 +15°C° 0 mm 4 m/s 756 mmHg 89%
    12:00 +17°C° 0 mm 4 m/s 756 mmHg 86%
    13:00 +17°C° 0 mm 4 m/s 756 mmHg 86%
    14:00 +17°C° 0 mm 4 m/s 756 mmHg 87%
    15:00 +17°C° 0 mm 4 m/s 756 mmHg 88%
    16:00 +17°C° 0,1 mm 4 m/s 756 mmHg 89%
    17:00 +17°C° 0,1 mm 4 m/s 755 mmHg 90%
    18:00 +17°C° 0,1 mm 4 m/s 755 mmHg 91%
    19:00 +15°C° 0,1 mm 4 m/s 756 mmHg 92%
    20:00 +15°C° 0,1 mm 4 m/s 756 mmHg 93%
    21:00 +15°C° 0,1 mm 4 m/s 756 mmHg 94%
    22:00 +14°C° 0 mm 4 m/s 756 mmHg 95%
    23:00 +13°C° 0 mm 4 m/s 756 mmHg 96%
    Arată mai mult